Regional Weather Roundup
Issued by NWS

Home | Current Version | Previous Version | Graphics & Text | Print | Product List | Glossary On
Versions: 1 2 3 4 5 6 7 8 9 10 11 12 13 14 15 16 17 18 19 20 21 22 23 24 25 26 27 28 29 30 31 32 33 34 35 36 37 38 39 40 41 42 43 44 45 46 47 48 49 50
424
ASUS43 KLSX 302110
RWRMO

WEATHER SUMMARY FOR MISSOURI
NATIONAL WEATHER SERVICE SPRINGFIELD MO
400 PM CDT MON MAY 30 2016

NOTE: "FAIR" INDICATES FEW OR NO CLOUDS BELOW 12,000 FEET WITH NO
       SIGNIFICANT WEATHER AND/OR OBSTRUCTIONS TO VISIBILITY.
       CURRENT SKY AND/OR WEATHER CONDITIONS ARE NOT AVAILABLE FOR
       CHILLICOTHE AND FARMINGTON.

MOZ001>031-035>038-043-044-053-054-302200-
...NORTHERN AND WESTERN MISSOURI...

CITY           SKY/WX    TMP DP  RH WIND       PRES   REMARKS
KANSAS CTY INT LGT RAIN  69  64  84 S9        29.99F
KANSAS C DTWN  CLOUDY    77  59  53 S14       29.98F
LEE`S SUMMIT   CLOUDY    75  56  51 S13       29.99F
ST JOSEPH      TSTM      74  59  59 S26G39    29.96R
CHILLICOTHE      N/A     83  67  58 S8        29.98F
KIRKSVILLE     CLOUDY    82  65  56 S9        30.00F

$$
MOZ066>068-077>081-088>096-101>105-302200-
...SOUTHWEST MISSOURI...

CITY           SKY/WX    TMP DP  RH WIND       PRES   REMARKS
SPRINGFIELD    CLOUDY    72  58  61 N8        30.04F
JOPLIN         CLOUDY    70  67  90 CALM      30.04F
BRANSON        CLOUDY    68  64  88 CALM      30.05F

$$
MOZ032>034-039>042-045>050-055>058-069>072-302200-
...CENTRAL MISSOURI...

CITY           SKY/WX    TMP DP  RH WIND       PRES   REMARKS
COLUMBIA       CLOUDY    81  66  60 S6        30.01F
JEFFERSON CITY CLOUDY    83  62  49 S6        29.99F
ROLLA          PTSUNNY   81  63  54 SE5       30.01F
SEDALIA        CLOUDY    79  67  66 S5        30.03R
WHITEMAN AFB   TSTM      70  63  78 SW28G36   30.03R
WARRENSBURG    LGT RAIN  68  59  73 S21G28    30.04R

$$
MOZ051-052-059>065-302200-
...EAST CENTRAL MISSOURI...

CITY           SKY/WX    TMP DP  RH WIND       PRES   REMARKS
ST LOUIS INTL  CLOUDY    84  55  37 SE8       30.00F THUNDER
SPIRIT OF STL  CLOUDY    84  61  45 E14G20    29.98F
ST CHARLES     PTSUNNY   84  61  45 SE9       29.98F

$$
MOZ072>076-082>087-097>100-106>115-302200-
...SOUTH CENTRAL AND SOUTHEAST MISSOURI...

CITY           SKY/WX    TMP DP  RH WIND       PRES   REMARKS
CAPE GIRARDEAU CLOUDY    86  58  38 VRB3      29.99F
FARMINGTON     MOSUNNY   81  65  58 SE6       30.03F
POPLAR BLUFF   SUNNY     85  61  44 E5        30.00F
WEST PLAINS    PTSUNNY   78  63  59 S5        30.05S

$$




USA.gov is the U.S. government's official web portal to all federal, state and local government web resources and services.